DLH5CW EDDP-EDDF

Flight info

Callsign DLH5CW
Flight time 0h 38m
Altitude 22000
Route ORTAG5Q ORTAG T177 ODIPI/N0348F210 T157 KERAX KERAX5A
Aircraft A320/M-SDE2E3FGIJ1LORWXYZ/HB1

Departure

Time 2026-05-05 21:47
Airport Leipzig/Halle Airport (EDDP)

Arrival

Time 2026-05-05 22:25
Airport Frankfurt Main Airport (EDDF)
Time Latitude Longitude Altitude Speed Heading
2026-05-05 21:19 51.41915 12.22035 431 ft 0 kts 15°
2026-05-05 21:37 51.41899 12.22028 424 ft 4 kts 17°
2026-05-05 21:37 51.41873 12.22015 421 ft 4 kts 16°
2026-05-05 21:38 51.41847 12.22006 436 ft 4 kts 359°
2026-05-05 21:38 51.41825 12.22013 427 ft 4 kts 334°
2026-05-05 21:38 51.41806 12.22039 421 ft 4 kts 294°
2026-05-05 21:38 51.41798 12.22075 423 ft 1 kts 285°
2026-05-05 21:39 51.41798 12.22076 424 ft 0 kts 285°
2026-05-05 21:40 51.41800 12.22065 428 ft 3 kts 285°
2026-05-05 21:41 51.41812 12.22000 429 ft 8 kts 285°
2026-05-05 21:41 51.41829 12.21900 430 ft 11 kts 285°
2026-05-05 21:41 51.41848 12.21789 436 ft 10 kts 285°
2026-05-05 21:41 51.41863 12.21698 431 ft 7 kts 284°
2026-05-05 21:42 51.41875 12.21630 436 ft 8 kts 286°
2026-05-05 21:42 51.41894 12.21519 437 ft 13 kts 285°
2026-05-05 21:42 51.41924 12.21343 420 ft 18 kts 285°
2026-05-05 21:42 51.41958 12.21144 426 ft 19 kts 288°
2026-05-05 21:43 51.41988 12.20972 424 ft 10 kts 285°
2026-05-05 21:43 51.42032 12.20914 415 ft 8 kts 357°
2026-05-05 21:43 51.42084 12.20935 426 ft 8 kts 15°
2026-05-05 21:43 51.42160 12.20967 420 ft 14 kts 15°
2026-05-05 21:44 51.42269 12.21015 432 ft 17 kts 16°
2026-05-05 21:44 51.42391 12.21068 431 ft 19 kts 15°
2026-05-05 21:44 51.42523 12.21126 436 ft 21 kts 15°
2026-05-05 21:44 51.42667 12.21190 436 ft 22 kts 15°
2026-05-05 21:45 51.42820 12.21257 430 ft 19 kts 15°
2026-05-05 21:45 51.42911 12.21318 423 ft 16 kts 44°
2026-05-05 21:45 51.42996 12.21457 428 ft 18 kts 45°
2026-05-05 21:45 51.43091 12.21609 429 ft 20 kts 45°
2026-05-05 21:46 51.43134 12.21803 431 ft 21 kts 85°
2026-05-05 21:46 51.43156 12.22273 433 ft 76 kts 86°
2026-05-05 21:46 51.43211 12.23435 442 ft 133 kts 86°
2026-05-05 21:46 51.43292 12.25127 702 ft 158 kts 86°
2026-05-05 21:47 51.43374 12.26865 1505 ft 155 kts 84°
2026-05-05 21:47 51.43669 12.28568 2036 ft 170 kts 64°
2026-05-05 21:47 51.44416 12.30190 2359 ft 194 kts 46°
2026-05-05 21:47 51.45626 12.31380 2782 ft 216 kts 23°
2026-05-05 21:48 51.47150 12.31697 3521 ft 227 kts 359°
2026-05-05 21:48 51.48673 12.30956 4377 ft 234 kts 332°
2026-05-05 21:48 51.50060 12.29586 5237 ft 235 kts 329°
2026-05-05 21:48 51.51453 12.28200 6053 ft 237 kts 329°
2026-05-05 21:49 51.52868 12.26813 6786 ft 241 kts 329°
2026-05-05 21:49 51.54307 12.25403 7505 ft 246 kts 327°
2026-05-05 21:49 51.55533 12.23329 7853 ft 270 kts 297°
2026-05-05 21:49 51.55968 12.20328 8332 ft 286 kts 265°
2026-05-05 21:50 51.55737 12.17122 9140 ft 292 kts 261°
2026-05-05 21:50 51.55508 12.13851 9947 ft 299 kts 262°
2026-05-05 21:50 51.55289 12.10402 10322 ft 322 kts 263°
2026-05-05 21:50 51.55075 12.06733 10833 ft 335 kts 263°
2026-05-05 21:51 51.54862 12.02970 11593 ft 341 kts 263°
2026-05-05 21:51 51.54562 11.99183 12388 ft 343 kts 254°
2026-05-05 21:51 51.53621 11.95679 13147 ft 343 kts 235°
2026-05-05 21:51 51.52286 11.92492 13904 ft 345 kts 233°
2026-05-05 21:52 51.49539 11.86097 15326 ft 351 kts 233°
2026-05-05 21:52 51.48144 11.82864 16030 ft 353 kts 233°
2026-05-05 21:52 51.46743 11.79610 16745 ft 356 kts 233°
2026-05-05 21:53 51.45331 11.76334 17457 ft 358 kts 233°
2026-05-05 21:53 51.43911 11.73043 18159 ft 360 kts 233°
2026-05-05 21:53 51.42483 11.69736 18777 ft 362 kts 233°
2026-05-05 21:53 51.41043 11.66402 19365 ft 365 kts 233°
2026-05-05 21:54 51.39590 11.63041 19957 ft 368 kts 233°
2026-05-05 21:54 51.38130 11.59660 20535 ft 371 kts 233°
2026-05-05 21:54 51.36658 11.56252 21107 ft 374 kts 233°
2026-05-05 21:54 51.35176 11.52824 21638 ft 377 kts 233°
2026-05-05 21:55 51.33680 11.49371 21779 ft 375 kts 233°
2026-05-05 21:55 51.32228 11.46021 21806 ft 358 kts 233°
2026-05-05 21:55 51.30823 11.42783 21803 ft 352 kts 233°
2026-05-05 21:55 51.29432 11.39590 21804 ft 350 kts 233°
2026-05-05 21:56 51.28041 11.36407 21810 ft 349 kts 232°
2026-05-05 21:56 51.26667 11.33272 21805 ft 349 kts 232°
2026-05-05 21:56 51.25273 11.30089 21808 ft 350 kts 232°
2026-05-05 21:56 51.23876 11.26898 21808 ft 351 kts 232°
2026-05-05 21:57 51.22475 11.23703 21805 ft 352 kts 232°
2026-05-05 21:57 51.21072 11.20507 21811 ft 352 kts 232°
2026-05-05 21:57 51.19668 11.17316 21811 ft 352 kts 232°
2026-05-05 21:57 51.18264 11.14130 21803 ft 351 kts 232°
2026-05-05 21:58 51.16858 11.10942 21804 ft 351 kts 232°
2026-05-05 21:58 51.15451 11.07754 21805 ft 351 kts 232°
2026-05-05 21:58 51.14044 11.04572 21803 ft 351 kts 232°
2026-05-05 21:58 51.12637 11.01391 21805 ft 351 kts 232°
2026-05-05 21:59 51.11228 10.98211 21807 ft 351 kts 232°
2026-05-05 21:59 51.09820 10.95038 21807 ft 351 kts 232°
2026-05-05 21:59 51.08412 10.91868 21811 ft 351 kts 232°
2026-05-05 21:59 51.07004 10.88701 21815 ft 350 kts 232°
2026-05-05 22:00 51.05599 10.85538 21809 ft 350 kts 232°
2026-05-05 22:00 51.04191 10.82376 21805 ft 351 kts 232°
2026-05-05 22:00 51.02782 10.79212 21802 ft 351 kts 232°
2026-05-05 22:00 51.01370 10.76046 21802 ft 351 kts 232°
2026-05-05 22:01 50.99957 10.72883 21802 ft 351 kts 232°
2026-05-05 22:01 50.98541 10.69723 21802 ft 351 kts 232°
2026-05-05 22:01 50.97124 10.66563 21800 ft 352 kts 232°
2026-05-05 22:01 50.95706 10.63404 21800 ft 352 kts 232°
2026-05-05 22:02 50.94286 10.60244 21806 ft 352 kts 232°
2026-05-05 22:02 50.92868 10.57088 21807 ft 352 kts 232°
2026-05-05 22:02 50.91443 10.53923 21808 ft 352 kts 232°
2026-05-05 22:02 50.90018 10.50764 21809 ft 352 kts 232°
2026-05-05 22:03 50.88593 10.47610 21811 ft 352 kts 232°
2026-05-05 22:03 50.87169 10.44463 21815 ft 352 kts 232°
2026-05-05 22:03 50.85757 10.41349 21818 ft 352 kts 233°
2026-05-05 22:03 50.84327 10.38203 21816 ft 352 kts 233°
2026-05-05 22:04 50.82895 10.35050 21828 ft 353 kts 233°
2026-05-05 22:04 50.81464 10.31896 21826 ft 352 kts 233°
2026-05-05 22:04 50.80033 10.28745 21823 ft 352 kts 233°
2026-05-05 22:04 50.78602 10.25595 21822 ft 352 kts 233°
2026-05-05 22:05 50.77174 10.22454 21803 ft 351 kts 233°
2026-05-05 22:05 50.75759 10.19353 21464 ft 345 kts 233°
2026-05-05 22:05 50.74366 10.16304 21128 ft 340 kts 233°
2026-05-05 22:05 50.72990 10.13297 20799 ft 336 kts 233°
2026-05-05 22:06 50.71627 10.10322 20472 ft 333 kts 233°
2026-05-05 22:06 50.70271 10.07367 20140 ft 331 kts 233°
2026-05-05 22:06 50.68928 10.04436 19826 ft 328 kts 233°
2026-05-05 22:06 50.67595 10.01530 19509 ft 326 kts 233°
2026-05-05 22:07 50.66268 9.98645 19189 ft 324 kts 233°
2026-05-05 22:07 50.64965 9.95818 18886 ft 322 kts 233°
2026-05-05 22:07 50.63636 9.92942 18574 ft 320 kts 233°
2026-05-05 22:07 50.62349 9.90155 18275 ft 318 kts 233°
2026-05-05 22:08 50.61053 9.87353 17947 ft 316 kts 233°
2026-05-05 22:08 50.59766 9.84566 17603 ft 314 kts 233°
2026-05-05 22:08 50.58487 9.81798 17252 ft 312 kts 233°
2026-05-05 22:08 50.57213 9.79048 16918 ft 310 kts 233°
2026-05-05 22:09 50.55947 9.76320 16580 ft 308 kts 233°
2026-05-05 22:09 50.54688 9.73608 16251 ft 306 kts 233°
2026-05-05 22:09 50.53435 9.70913 15918 ft 305 kts 233°
2026-05-05 22:09 50.52167 9.68194 15585 ft 303 kts 233°
2026-05-05 22:10 50.50939 9.65567 15264 ft 302 kts 233°
2026-05-05 22:10 50.49700 9.62920 14947 ft 300 kts 233°
2026-05-05 22:10 50.48466 9.60285 14626 ft 299 kts 233°
2026-05-05 22:10 50.47218 9.57635 14300 ft 297 kts 233°
2026-05-05 22:11 50.45959 9.55139 13981 ft 295 kts 231°
2026-05-05 22:11 50.44651 9.52675 13684 ft 293 kts 230°
2026-05-05 22:11 50.43336 9.50247 13343 ft 291 kts 230°
2026-05-05 22:11 50.42027 9.47837 12999 ft 289 kts 230°
2026-05-05 22:12 50.40734 9.45442 12662 ft 287 kts 230°
2026-05-05 22:12 50.39456 9.43055 12327 ft 285 kts 231°
2026-05-05 22:12 50.38185 9.40680 11985 ft 283 kts 231°
2026-05-05 22:12 50.36922 9.38322 11657 ft 282 kts 231°
2026-05-05 22:13 50.35669 9.35977 11327 ft 280 kts 231°
2026-05-05 22:13 50.34421 9.33644 11001 ft 278 kts 231°
2026-05-05 22:13 50.33179 9.31331 10673 ft 277 kts 231°
2026-05-05 22:13 50.31946 9.29034 10366 ft 275 kts 231°
2026-05-05 22:14 50.30719 9.26749 10052 ft 273 kts 231°
2026-05-05 22:14 50.29491 9.24493 9740 ft 272 kts 230°
2026-05-05 22:14 50.28253 9.22260 9405 ft 270 kts 230°
2026-05-05 22:14 50.27017 9.20050 9051 ft 269 kts 230°
2026-05-05 22:15 50.25784 9.17855 8725 ft 268 kts 230°
2026-05-05 22:15 50.24560 9.15671 8397 ft 267 kts 230°
2026-05-05 22:15 50.23345 9.13485 8087 ft 266 kts 230°
2026-05-05 22:15 50.22549 9.12044 7881 ft 263 kts 230°
2026-05-05 22:16 50.21376 9.09911 7535 ft 253 kts 230°
2026-05-05 22:16 50.20259 9.07906 7165 ft 237 kts 230°
2026-05-05 22:16 50.19201 9.06037 6829 ft 222 kts 229°
2026-05-05 22:16 50.18202 9.04284 6527 ft 211 kts 229°
2026-05-05 22:17 50.17234 9.02577 6364 ft 208 kts 230°
2026-05-05 22:17 50.16290 9.00898 6191 ft 202 kts 229°
2026-05-05 22:17 50.15396 8.99308 6051 ft 189 kts 230°
2026-05-05 22:17 50.14545 8.97790 5779 ft 184 kts 229°
2026-05-05 22:18 50.13710 8.96311 5520 ft 179 kts 229°
2026-05-05 22:18 50.12899 8.94868 5278 ft 175 kts 230°
2026-05-05 22:18 50.12268 8.93279 5009 ft 172 kts 245°
2026-05-05 22:18 50.11814 8.91582 4797 ft 168 kts 248°
2026-05-05 22:19 50.11405 8.89908 4596 ft 162 kts 248°
2026-05-05 22:19 50.11016 8.88286 4351 ft 158 kts 249°
2026-05-05 22:19 50.10641 8.86704 4125 ft 154 kts 249°
2026-05-05 22:19 50.10274 8.85151 3902 ft 151 kts 249°
2026-05-05 22:20 50.09923 8.83652 3702 ft 148 kts 249°
2026-05-05 22:20 50.09572 8.82175 3511 ft 144 kts 249°
2026-05-05 22:20 50.09230 8.80723 3319 ft 141 kts 249°
2026-05-05 22:20 50.08895 8.79301 3132 ft 139 kts 249°
2026-05-05 22:21 50.08565 8.77900 2948 ft 137 kts 248°
2026-05-05 22:21 50.08230 8.76480 2739 ft 138 kts 248°
2026-05-05 22:21 50.07905 8.75101 2542 ft 137 kts 248°
2026-05-05 22:21 50.07579 8.73730 2430 ft 130 kts 248°
2026-05-05 22:22 50.07273 8.72430 2213 ft 129 kts 248°
2026-05-05 22:22 50.06965 8.71128 2054 ft 127 kts 248°
2026-05-05 22:22 50.06657 8.69829 1878 ft 129 kts 248°
2026-05-05 22:22 50.06345 8.68513 1715 ft 130 kts 247°
2026-05-05 22:23 50.06030 8.67190 1548 ft 131 kts 247°
2026-05-05 22:23 50.05716 8.65865 1367 ft 130 kts 247°
2026-05-05 22:23 50.05401 8.64537 1181 ft 132 kts 248°
2026-05-05 22:23 50.05079 8.63180 1008 ft 135 kts 248°
2026-05-05 22:24 50.04752 8.61801 832 ft 137 kts 247°
2026-05-05 22:24 50.04418 8.60390 656 ft 140 kts 247°
2026-05-05 22:24 50.04081 8.58964 462 ft 140 kts 247°
2026-05-05 22:24 50.03750 8.57591 365 ft 120 kts 249°
2026-05-05 22:25 50.03562 8.56792 357 ft 52 kts 249°
2026-05-05 22:25 50.03456 8.56349 355 ft 31 kts 254°
2026-05-05 22:25 50.03441 8.56027 348 ft 29 kts 277°
2026-05-05 22:25 50.03457 8.55881 345 ft 9 kts 280°
2026-05-05 22:26 50.03460 8.55850 345 ft 9 kts 280°
2026-05-05 22:26 50.03478 8.55692 350 ft 7 kts 279°
2026-05-05 22:26 50.03485 8.55625 345 ft 6 kts 279°
2026-05-05 22:26 50.03493 8.55550 354 ft 8 kts 279°
2026-05-05 22:27 50.03527 8.55506 353 ft 6 kts
2026-05-05 22:27 50.03567 8.55517 346 ft 5 kts
2026-05-05 22:27 50.03605 8.55526 351 ft 7 kts
2026-05-05 22:27 50.03670 8.55541 351 ft 12 kts
2026-05-05 22:28 50.03761 8.55556 348 ft 13 kts 356°
2026-05-05 22:28 50.03842 8.55516 350 ft 11 kts 339°
2026-05-05 22:28 50.03906 8.55481 355 ft 8 kts 349°
2026-05-05 22:28 50.03945 8.55519 352 ft 7 kts 66°
2026-05-05 22:29 50.03964 8.55601 354 ft 12 kts 69°
2026-05-05 22:29 50.04004 8.55769 353 ft 20 kts 70°
2026-05-05 22:29 50.04056 8.55984 355 ft 22 kts 69°
2026-05-05 22:29 50.04111 8.56210 358 ft 23 kts 69°
2026-05-05 22:30 50.04167 8.56449 356 ft 24 kts 70°
2026-05-05 22:30 50.04226 8.56692 357 ft 21 kts 70°
2026-05-05 22:30 50.04261 8.56800 359 ft 7 kts 36°
2026-05-05 22:30 50.04322 8.56820 360 ft 11 kts 11°
2026-05-05 22:31 50.04399 8.56843 361 ft 11 kts
2026-05-05 22:31 50.04464 8.56881 363 ft 9 kts 57°
2026-05-05 22:31 50.04482 8.56963 359 ft 5 kts 78°
2026-05-05 22:31 50.04465 8.56990 363 ft 3 kts 154°
2026-05-05 22:32 50.04436 8.57006 363 ft 6 kts 160°
2026-05-05 22:32 50.04396 8.57029 363 ft 1 kts 160°
2026-05-05 22:32 50.04394 8.57030 362 ft 1 kts 160°
2026-05-05 22:32 50.04393 8.57031 362 ft 0 kts 160°